Location: Brabourne
(51.1333°N, 1.0000°E)
Time: 04:46:18
(UTC+00:00)

NOSS 3-1 (A) - Pass Details

Date: 01 November 2021
Orbit: 721 x 1491 km, 63.4° (Epoch: 22 November)

Event Time Altitude Azimuth Distance (km) Brightness Sun altitude
Rises 17:21:45 0° 223° (SW) 3,231 7.3 -8.6°
Reaches altitude 10° 17:23:59 10° 224° (SW) 2,367 6.5 -9.0°
Maximum altitude 17:29:25 88° 313° (NW) 897 3.4 -9.8°
Drops below altitude 10° 17:35:58 10° 45° (NE) 2,830 5.4 -10.8°
Enters shadow 17:36:49 - 45° (NE) 3,153 5.7 -10.9°
